STARLINK-37197, 68389

Orbit data source: Space-Track

STARLINK-37197, 68389 is a payload satellite owned by SpaceX/Seattle (US) in SSO that was launched on Thu, 26 Mar 2026 UTC via an FALCON 9 launch vehicle from the Air Force Western Test Range (AFWTR). Payload-class satellites include a variety of spacecraft equipped with specific instruments for various scientific and technological missions. These include communications satellites like Starlink; space stations such as the ISS; scientific satellites like the Hubble; Earth observation satellites from companies like Planet Labs, Umbra, and HawkEye 360; GPS; miniature CubeSats for education and research; and military/defense satellites.

Loading next visibility...
Identifier
68389, 2026-063K
Orbit
SSO
Country
Flag of USUS
Related business
Manufacturer
SpaceX/Seattle
Mission
Operational spacecraft
Bus & Motor
STARLINK V2MO, Unknown motor
Mass
575 kg wet, ~530 kg dry
Launch date (UTC)
2026-03-26 (3 months ago)
Launch vehicle
FALCON 9
Launch site
Air Force Western Test Range (AFWTR)
Object type
Payload
Rocket body
Debris
Shape & HBR
Unknown shape, 17.7 m
Radar Cross Section
Large (>1 m²)

Expand to show TLE details & history
Last TLE update: 18 hours ago

TLE from 18 hours ago
0 STARLINK-37197
1 68389U 26063K   26165.36097701  .00024378  00000-0  75492-3 0  9998
2 68389  97.2853 307.6872 0000443  78.4941 281.6352 15.33449089 12711
Epoch: 2026-06-14T08:39Z
TLE epoch observation values (Epoch: 2026-06-14T08:39:48.413Z)
Latitude
0.00002°
Longitude
-84.92735°
Altitude
468.582 km
Speed
7.632 km/s
True Right ascension
20h 30m 44s
True Declination
0° 00' 00"
Sunlit
Object was in full shadow at epoch
Visualization orbit readout
Latitude
Unknown
Longitude
Unknown
Altitude
Unknown
Speed
Unknown
Apparent Right ascension
Unknown
Apparent Declination
Unknown
Sunlit
N/A
Visualization observer readout
Local Sidereal Time
12:58:32
Azimuth
Unknown
Elevation
Unknown
Doppler factor
Unknown
Orbital elements
Apogee altitude
462.777 km
Perigee altitude
462.171 km
Semi-major axis
6,840.611 km
Eccentricity
0.00004
Inclination
97.2853°
RAAN
307.6872°
Arg. of periapsis
78.4941°
True anomaly
281.63023°
Mean anomaly
281.6352°
Eccentric anomaly
281.63271°
Mean motion
3.8362 °/min
Orbital period
93.84 mins
BSTAR
0.00075492
Loading maneuver chart data...
Computing Atmospheric mass density...
Loading historical data...
Loading historical data...
Loading historical data...
Loading historical data...
Loading historical data...
Loading historical data...
Loading historical data...

Documentation

Showing up to 5 results
|